Simultaneous Nadir Overpasses (SNOs) Predictions

Prediction of SNOs between GOES-16 and METOP-C Satellite Orbit:

Table of predicted SNOs for the next 14.0 days since TLE Epoch: 10/11/2019
Index Date Time (GOES-16) GOES-16 Lat,Lon METOP-C Lat,Lon Distance(km) Time Diff (sec)
1 10/12/2019 14:17:35 0.01, -75.20 -0.84, -71.50 422.97 80
2 10/14/2019 02:36:34 -0.01, -75.20 -0.21, -76.09 101.42 80
3 10/15/2019 02:13:15 -0.01, -75.20 0.91, -71.09 468.13 80
4 10/16/2019 14:32:06 0.01, -75.22 0.13, -75.65 49.99 80
5 10/19/2019 02:33:07 -0.00, -75.22 0.00, -75.26 4.37 80
6 10/21/2019 14:31:20 -0.00, -75.25 -0.12, -74.84 47.68 80
7 10/23/2019 02:50:19 0.00, -75.25 -0.91, -79.43 475.57 80
8 10/24/2019 02:26:59 0.00, -75.26 0.21, -74.43 94.62 80
9 10/25/2019 14:45:52 -0.00, -75.29 0.80, -79.00 422.54 80




NCC Satellite Simultaneous Nadir Overpasses (SNOs) Prediction Service
